Year,Month,Day,Hour,Minute,Value (Times are PST for temperature in C)
2019,06,01,00,00,15.80
2019,06,01,00,01,15.80
2019,06,01,00,02,15.80
2019,06,01,00,03,15.80
2019,06,01,00,04,15.80
2019,06,01,00,05,15.80
2019,06,01,00,06,15.80
2019,06,01,00,07,15.80
2019,06,01,00,08,15.70
2019,06,01,00,09,15.70
2019,06,01,00,10,15.70
2019,06,01,00,11,15.70
2019,06,01,00,12,15.70
2019,06,01,00,13,15.60
2019,06,01,00,14,15.60
2019,06,01,00,15,15.60
2019,06,01,00,16,15.60
2019,06,01,00,17,15.60
2019,06,01,00,18,15.60
2019,06,01,00,19,15.60
2019,06,01,00,20,15.50
2019,06,01,00,21,15.50
2019,06,01,00,22,15.50
2019,06,01,00,23,15.50
2019,06,01,00,24,15.50
2019,06,01,00,25,15.50
2019,06,01,00,26,15.50
2019,06,01,00,27,15.40
2019,06,01,00,28,15.40
2019,06,01,00,29,15.40
2019,06,01,00,30,15.40
2019,06,01,00,31,15.40
2019,06,01,00,32,15.40
2019,06,01,00,33,15.40
2019,06,01,00,34,15.30
2019,06,01,00,35,15.30
2019,06,01,00,36,15.30
2019,06,01,00,37,15.30
2019,06,01,00,38,15.30
2019,06,01,00,39,15.30
2019,06,01,00,40,15.30
2019,06,01,00,41,15.30
2019,06,01,00,42,15.30
2019,06,01,00,43,15.30
2019,06,01,00,44,15.30
2019,06,01,00,45,15.30
2019,06,01,00,46,15.20
2019,06,01,00,47,15.20
2019,06,01,00,48,15.20
2019,06,01,00,49,15.20
2019,06,01,00,50,15.20
2019,06,01,00,51,15.20
2019,06,01,00,52,15.20
2019,06,01,00,53,15.20
2019,06,01,00,54,15.20
2019,06,01,00,55,15.20
2019,06,01,00,56,15.20
2019,06,01,00,57,15.20
2019,06,01,00,58,15.20
2019,06,01,00,59,15.10
2019,06,01,01,00,15.10
2019,06,01,01,01,15.10
2019,06,01,01,02,15.10
2019,06,01,01,03,15.10
2019,06,01,01,04,15.10
2019,06,01,01,05,15.10
2019,06,01,01,06,15.10
2019,06,01,01,07,15.10
2019,06,01,01,08,15.10
2019,06,01,01,09,15.10
2019,06,01,01,10,15.10
2019,06,01,01,11,15.10
2019,06,01,01,12,15.10
2019,06,01,01,13,15.00
2019,06,01,01,14,15.00
2019,06,01,01,15,15.00
2019,06,01,01,16,15.00
2019,06,01,01,17,15.00
2019,06,01,01,18,14.90
2019,06,01,01,19,14.90
2019,06,01,01,20,14.90
2019,06,01,01,21,14.90
2019,06,01,01,22,14.90
2019,06,01,01,23,14.90
2019,06,01,01,24,14.90
2019,06,01,01,25,14.90
2019,06,01,01,26,14.80
2019,06,01,01,27,14.80
2019,06,01,01,28,14.80
2019,06,01,01,29,14.80
2019,06,01,01,30,14.80
2019,06,01,01,31,14.80
2019,06,01,01,32,14.80
2019,06,01,01,33,14.80
2019,06,01,01,34,14.70
2019,06,01,01,35,14.70
2019,06,01,01,36,14.80
2019,06,01,01,37,14.80
2019,06,01,01,38,14.80
2019,06,01,01,39,14.80
2019,06,01,01,40,14.80
2019,06,01,01,41,14.80
2019,06,01,01,42,14.80
2019,06,01,01,43,14.80
2019,06,01,01,44,14.80
2019,06,01,01,45,14.80
2019,06,01,01,46,14.80
2019,06,01,01,47,14.80
2019,06,01,01,48,14.80
2019,06,01,01,49,14.80
2019,06,01,01,50,14.80
2019,06,01,01,51,14.80
2019,06,01,01,52,14.70
2019,06,01,01,53,14.70
2019,06,01,01,54,14.70
2019,06,01,01,55,14.70
2019,06,01,01,56,14.70
2019,06,01,01,57,14.70
2019,06,01,01,58,14.70
2019,06,01,01,59,14.70
2019,06,01,02,00,14.70
2019,06,01,02,01,14.70
2019,06,01,02,02,14.70
2019,06,01,02,03,14.70
2019,06,01,02,04,14.70
2019,06,01,02,05,14.70
2019,06,01,02,06,14.70
2019,06,01,02,07,14.70
2019,06,01,02,08,14.70
2019,06,01,02,09,14.70
2019,06,01,02,10,14.70
2019,06,01,02,11,14.60
2019,06,01,02,12,14.60
2019,06,01,02,13,14.60
2019,06,01,02,14,14.60
2019,06,01,02,15,14.60
2019,06,01,02,16,14.60
2019,06,01,02,17,14.60
2019,06,01,02,18,14.60
2019,06,01,02,19,14.60
2019,06,01,02,20,14.50
2019,06,01,02,21,14.50
2019,06,01,02,22,14.50
2019,06,01,02,23,14.50
2019,06,01,02,24,14.50
2019,06,01,02,25,14.40
2019,06,01,02,26,14.40
2019,06,01,02,27,14.40
2019,06,01,02,28,14.40
2019,06,01,02,29,14.40
2019,06,01,02,30,14.40
2019,06,01,02,31,14.40
2019,06,01,02,32,14.40
2019,06,01,02,33,14.40
2019,06,01,02,34,14.40
2019,06,01,02,35,14.40
2019,06,01,02,36,14.40
2019,06,01,02,37,14.30
2019,06,01,02,38,14.30
2019,06,01,02,39,14.30
2019,06,01,02,40,14.30
2019,06,01,02,41,14.30
2019,06,01,02,42,14.30
2019,06,01,02,43,14.30
2019,06,01,02,44,14.20
2019,06,01,02,45,14.20
2019,06,01,02,46,14.20
2019,06,01,02,47,14.20
2019,06,01,02,48,14.20
2019,06,01,02,49,14.20
2019,06,01,02,50,14.20
2019,06,01,02,51,14.20
2019,06,01,02,52,14.20
2019,06,01,02,53,14.20
2019,06,01,02,54,14.20
2019,06,01,02,55,14.10
2019,06,01,02,56,14.10
2019,06,01,02,57,14.10
2019,06,01,02,58,14.10
2019,06,01,02,59,14.10
2019,06,01,03,00,14.10
2019,06,01,03,01,14.10
2019,06,01,03,02,14.10
2019,06,01,03,03,14.10
2019,06,01,03,04,14.10
2019,06,01,03,05,14.10
2019,06,01,03,06,14.00
2019,06,01,03,07,14.00
2019,06,01,03,08,14.00
2019,06,01,03,09,14.00
2019,06,01,03,10,14.00
2019,06,01,03,11,14.00
2019,06,01,03,12,14.00
2019,06,01,03,13,14.00
2019,06,01,03,14,13.90
2019,06,01,03,15,13.90
2019,06,01,03,16,13.90
2019,06,01,03,17,13.90
2019,06,01,03,18,13.90
2019,06,01,03,19,13.90
2019,06,01,03,20,13.90
2019,06,01,03,21,13.90
2019,06,01,03,22,13.90
2019,06,01,03,23,13.90
2019,06,01,03,24,13.80
2019,06,01,03,25,13.80
2019,06,01,03,26,13.80
2019,06,01,03,27,13.80
2019,06,01,03,28,13.80
2019,06,01,03,29,13.80
2019,06,01,03,30,13.80
2019,06,01,03,31,13.80
2019,06,01,03,32,13.80
2019,06,01,03,33,13.80
2019,06,01,03,34,13.80
2019,06,01,03,35,13.80
2019,06,01,03,36,13.80
2019,06,01,03,37,13.70
2019,06,01,03,38,13.70
2019,06,01,03,39,13.70
2019,06,01,03,40,13.70
2019,06,01,03,41,13.70
2019,06,01,03,42,13.70
2019,06,01,03,43,13.70
2019,06,01,03,44,13.60
2019,06,01,03,45,13.60
2019,06,01,03,46,13.60
2019,06,01,03,47,13.60
2019,06,01,03,48,13.60
2019,06,01,03,49,13.60
2019,06,01,03,50,13.60
2019,06,01,03,51,13.60
2019,06,01,03,52,13.50
2019,06,01,03,53,13.50
2019,06,01,03,54,13.50
2019,06,01,03,55,13.50
2019,06,01,03,56,13.50
2019,06,01,03,57,13.50
2019,06,01,03,58,13.50
2019,06,01,03,59,13.50
2019,06,01,04,00,13.50
2019,06,01,04,01,13.50
2019,06,01,04,02,13.50
2019,06,01,04,03,13.40
2019,06,01,04,04,13.40
2019,06,01,04,05,13.40
2019,06,01,04,06,13.40
2019,06,01,04,07,13.40
2019,06,01,04,08,13.40
2019,06,01,04,09,13.40
2019,06,01,04,10,13.40
2019,06,01,04,11,13.40
2019,06,01,04,12,13.40
2019,06,01,04,13,13.40
2019,06,01,04,14,13.30
2019,06,01,04,15,13.30
2019,06,01,04,16,13.30
2019,06,01,04,17,13.30
2019,06,01,04,18,13.30
2019,06,01,04,19,13.30
2019,06,01,04,20,13.30
2019,06,01,04,21,13.30
2019,06,01,04,22,13.30
2019,06,01,04,23,13.30
2019,06,01,04,24,13.30
2019,06,01,04,25,13.30
2019,06,01,04,26,13.30
2019,06,01,04,27,13.30
2019,06,01,04,28,13.30
2019,06,01,04,29,13.30
2019,06,01,04,30,13.30
2019,06,01,04,31,13.30
2019,06,01,04,32,13.30
2019,06,01,04,33,13.20
2019,06,01,04,34,13.30
2019,06,01,04,35,13.30
2019,06,01,04,36,13.20
2019,06,01,04,37,13.20
2019,06,01,04,38,13.20
2019,06,01,04,39,13.20
2019,06,01,04,40,13.20
2019,06,01,04,41,13.20
2019,06,01,04,42,13.20
2019,06,01,04,43,13.20
2019,06,01,04,44,13.20
2019,06,01,04,45,13.20
2019,06,01,04,46,13.20
2019,06,01,04,47,13.20
2019,06,01,04,48,13.20
2019,06,01,04,49,13.20
2019,06,01,04,50,13.20
2019,06,01,04,51,13.20
2019,06,01,04,52,13.20
2019,06,01,04,53,13.20
2019,06,01,04,54,13.10
2019,06,01,04,55,13.10
2019,06,01,04,56,13.10
2019,06,01,04,57,13.10
2019,06,01,04,58,13.10
2019,06,01,04,59,13.10
2019,06,01,05,00,13.10
2019,06,01,05,01,13.10
2019,06,01,05,02,13.10
2019,06,01,05,03,13.00
2019,06,01,05,04,13.00
2019,06,01,05,05,13.00
2019,06,01,05,06,13.00
2019,06,01,05,07,12.90
2019,06,01,05,08,13.00
2019,06,01,05,09,12.90
2019,06,01,05,10,12.90
2019,06,01,05,11,12.90
2019,06,01,05,12,12.90
2019,06,01,05,13,12.90
2019,06,01,05,14,12.90
2019,06,01,05,15,12.90
2019,06,01,05,16,12.90
2019,06,01,05,17,12.90
2019,06,01,05,18,12.90
2019,06,01,05,19,12.80
2019,06,01,05,20,12.80
2019,06,01,05,21,12.80
2019,06,01,05,22,12.80
2019,06,01,05,23,12.80
2019,06,01,05,24,12.80
2019,06,01,05,25,12.80
2019,06,01,05,26,12.80
2019,06,01,05,27,12.80
2019,06,01,05,28,12.80
2019,06,01,05,29,12.80
2019,06,01,05,30,12.80
2019,06,01,05,31,12.80
2019,06,01,05,32,12.80
2019,06,01,05,33,12.80
2019,06,01,05,34,12.80
2019,06,01,05,35,12.80
2019,06,01,05,36,12.80
2019,06,01,05,37,12.80
2019,06,01,05,38,12.80
2019,06,01,05,39,12.80
2019,06,01,05,40,12.80
2019,06,01,05,41,12.80
2019,06,01,05,42,12.80
2019,06,01,05,43,12.80
2019,06,01,05,44,12.80
2019,06,01,05,45,12.80
2019,06,01,05,46,12.80
2019,06,01,05,47,12.80
2019,06,01,05,48,12.80
2019,06,01,05,49,12.80
2019,06,01,05,50,12.80
2019,06,01,05,51,12.80
2019,06,01,05,52,12.80
2019,06,01,05,53,12.80
2019,06,01,05,54,12.80
2019,06,01,05,55,12.80
2019,06,01,05,56,12.80
2019,06,01,05,57,12.80
2019,06,01,05,58,12.70
2019,06,01,05,59,12.70
2019,06,01,06,00,12.70
2019,06,01,06,01,12.70
2019,06,01,06,02,12.70
2019,06,01,06,03,12.70
2019,06,01,06,04,12.70
2019,06,01,06,05,12.70
2019,06,01,06,06,12.70
2019,06,01,06,07,12.70
2019,06,01,06,08,12.70
2019,06,01,06,09,12.70
2019,06,01,06,10,12.70
2019,06,01,06,11,12.70
2019,06,01,06,12,12.70
2019,06,01,06,13,12.70
2019,06,01,06,14,12.70
2019,06,01,06,15,12.70
2019,06,01,06,16,12.70
2019,06,01,06,17,12.70
2019,06,01,06,18,12.70
2019,06,01,06,19,12.70
2019,06,01,06,20,12.70
2019,06,01,06,21,12.70
2019,06,01,06,22,12.70
2019,06,01,06,23,12.80
2019,06,01,06,24,12.80
2019,06,01,06,25,12.80
2019,06,01,06,26,12.80
2019,06,01,06,27,12.80
2019,06,01,06,28,12.80
2019,06,01,06,29,12.80
2019,06,01,06,30,12.80
2019,06,01,06,31,12.80
2019,06,01,06,32,12.80
2019,06,01,06,33,12.80
2019,06,01,06,34,12.80
2019,06,01,06,35,12.80
2019,06,01,06,36,12.90
2019,06,01,06,37,12.90
2019,06,01,06,38,12.90
2019,06,01,06,39,12.90
2019,06,01,06,40,12.90
2019,06,01,06,41,12.90
2019,06,01,06,42,12.90
2019,06,01,06,43,12.90
2019,06,01,06,44,12.90
2019,06,01,06,45,12.90
2019,06,01,06,46,12.90
2019,06,01,06,47,12.90
2019,06,01,06,48,12.90
2019,06,01,06,49,12.90
2019,06,01,06,50,13.00
2019,06,01,06,51,12.90
2019,06,01,06,52,12.90
2019,06,01,06,53,12.90
2019,06,01,06,54,12.90
2019,06,01,06,55,12.90
2019,06,01,06,56,12.90
2019,06,01,06,57,13.00
2019,06,01,06,58,13.00
2019,06,01,06,59,13.00
2019,06,01,07,00,13.00
2019,06,01,07,01,13.00
2019,06,01,07,02,13.00
2019,06,01,07,03,13.00
2019,06,01,07,04,13.00
2019,06,01,07,05,13.00
2019,06,01,07,06,13.00
2019,06,01,07,07,13.00
2019,06,01,07,08,13.00
2019,06,01,07,09,13.00
2019,06,01,07,10,13.00
2019,06,01,07,11,13.00
2019,06,01,07,12,13.00
2019,06,01,07,13,13.00
2019,06,01,07,14,13.00
2019,06,01,07,15,13.00
2019,06,01,07,16,13.00
2019,06,01,07,17,13.00
2019,06,01,07,18,13.00
2019,06,01,07,19,13.10
2019,06,01,07,20,13.00
2019,06,01,07,21,13.10
2019,06,01,07,22,13.00
2019,06,01,07,23,13.10
2019,06,01,07,24,13.10
2019,06,01,07,25,13.10
2019,06,01,07,26,13.00
2019,06,01,07,27,13.00
2019,06,01,07,28,13.00
2019,06,01,07,29,13.00
2019,06,01,07,30,13.00
2019,06,01,07,31,13.00
2019,06,01,07,32,13.10
2019,06,01,07,33,13.10
2019,06,01,07,34,13.10
2019,06,01,07,35,13.10
2019,06,01,07,36,13.10
2019,06,01,07,37,13.10
2019,06,01,07,38,13.10
2019,06,01,07,39,13.10
2019,06,01,07,40,13.10
2019,06,01,07,41,13.10
2019,06,01,07,42,13.10
2019,06,01,07,43,13.10
2019,06,01,07,44,13.20
2019,06,01,07,45,13.20
2019,06,01,07,46,13.20
2019,06,01,07,47,13.20
2019,06,01,07,48,13.20
2019,06,01,07,49,13.20
2019,06,01,07,50,13.20
2019,06,01,07,51,13.20
2019,06,01,07,52,13.20
2019,06,01,07,53,13.20
2019,06,01,07,54,13.20
2019,06,01,07,55,13.20
2019,06,01,07,56,13.30
2019,06,01,07,57,13.30
2019,06,01,07,58,13.30
2019,06,01,07,59,13.30
2019,06,01,08,00,13.30
2019,06,01,08,01,13.30
2019,06,01,08,02,13.30
2019,06,01,08,03,13.30
2019,06,01,08,04,13.30
2019,06,01,08,05,13.30
2019,06,01,08,06,13.30
2019,06,01,08,07,13.30
2019,06,01,08,08,13.30
2019,06,01,08,09,13.30
2019,06,01,08,10,13.40
2019,06,01,08,11,13.40
2019,06,01,08,12,13.40
2019,06,01,08,13,13.40
2019,06,01,08,14,13.40
2019,06,01,08,15,13.40
2019,06,01,08,16,13.40
2019,06,01,08,17,13.40
2019,06,01,08,18,13.40
2019,06,01,08,19,13.40
2019,06,01,08,20,13.40
2019,06,01,08,21,13.40
2019,06,01,08,22,13.40
2019,06,01,08,23,13.40
2019,06,01,08,24,13.40
2019,06,01,08,25,13.50
2019,06,01,08,26,13.50
2019,06,01,08,27,13.50
2019,06,01,08,28,13.50
2019,06,01,08,29,13.50
2019,06,01,08,30,13.50
2019,06,01,08,31,13.50
2019,06,01,08,32,13.50
2019,06,01,08,33,13.50
2019,06,01,08,34,13.50
2019,06,01,08,35,13.60
2019,06,01,08,36,13.60
2019,06,01,08,37,13.60
2019,06,01,08,38,13.60
2019,06,01,08,39,13.60
2019,06,01,08,40,13.60
2019,06,01,08,41,13.60
2019,06,01,08,42,13.70
2019,06,01,08,43,13.70
2019,06,01,08,44,13.70
2019,06,01,08,45,13.70
2019,06,01,08,46,13.70
2019,06,01,08,47,13.70
2019,06,01,08,48,13.70
2019,06,01,08,49,13.70
2019,06,01,08,50,13.70
2019,06,01,08,51,13.80
2019,06,01,08,52,13.80
2019,06,01,08,53,13.80
2019,06,01,08,54,13.80
2019,06,01,08,55,13.80
2019,06,01,08,56,13.80
2019,06,01,08,57,13.80
2019,06,01,08,58,13.80
2019,06,01,08,59,13.90
2019,06,01,09,00,13.90
2019,06,01,09,01,13.90
2019,06,01,09,02,13.90
2019,06,01,09,03,13.90
2019,06,01,09,04,13.90
2019,06,01,09,05,13.90
2019,06,01,09,06,13.90
2019,06,01,09,07,13.90
2019,06,01,09,08,13.90
2019,06,01,09,09,13.90
2019,06,01,09,10,13.90
2019,06,01,09,11,13.90
2019,06,01,09,12,13.90
2019,06,01,09,13,13.90
2019,06,01,09,14,14.00
2019,06,01,09,15,14.00
2019,06,01,09,16,14.00
2019,06,01,09,17,14.00
2019,06,01,09,18,14.00
2019,06,01,09,19,14.00
2019,06,01,09,20,14.10
2019,06,01,09,21,14.10
2019,06,01,09,22,14.10
2019,06,01,09,23,14.10
2019,06,01,09,24,14.10
2019,06,01,09,25,14.10
2019,06,01,09,26,14.10
2019,06,01,09,27,14.20
2019,06,01,09,28,14.20
2019,06,01,09,29,14.20
2019,06,01,09,30,14.20
2019,06,01,09,31,14.20
2019,06,01,09,32,14.20
2019,06,01,09,33,14.20
2019,06,01,09,34,14.30
2019,06,01,09,35,14.30
2019,06,01,09,36,14.30
2019,06,01,09,37,14.30
2019,06,01,09,38,14.30
2019,06,01,09,39,14.30
2019,06,01,09,40,14.30
2019,06,01,09,41,14.30
2019,06,01,09,42,14.40
2019,06,01,09,43,14.40
2019,06,01,09,44,14.40
2019,06,01,09,45,14.40
2019,06,01,09,46,14.40
2019,06,01,09,47,14.40
2019,06,01,09,48,14.50
2019,06,01,09,49,14.50
2019,06,01,09,50,14.50
2019,06,01,09,51,14.50
2019,06,01,09,52,14.50
2019,06,01,09,53,14.50
2019,06,01,09,54,14.60
2019,06,01,09,55,14.60
2019,06,01,09,56,14.60
2019,06,01,09,57,14.60
2019,06,01,09,58,14.60
2019,06,01,09,59,14.60
2019,06,01,10,00,14.60
2019,06,01,10,01,14.70
2019,06,01,10,02,14.70
2019,06,01,10,03,14.70
2019,06,01,10,04,14.70
2019,06,01,10,05,14.70
2019,06,01,10,06,14.70
2019,06,01,10,07,14.70
2019,06,01,10,08,14.80
2019,06,01,10,09,14.80
2019,06,01,10,10,14.80
2019,06,01,10,11,14.80
2019,06,01,10,12,14.80
2019,06,01,10,13,14.80
2019,06,01,10,14,14.90
2019,06,01,10,15,14.90
2019,06,01,10,16,14.90
2019,06,01,10,17,14.90
2019,06,01,10,18,15.00
2019,06,01,10,19,15.00
2019,06,01,10,20,15.00
2019,06,01,10,21,15.10
2019,06,01,10,22,15.10
2019,06,01,10,23,15.10
2019,06,01,10,24,15.10
2019,06,01,10,25,15.10
2019,06,01,10,26,15.20
2019,06,01,10,27,15.20
2019,06,01,10,28,15.20
2019,06,01,10,29,15.20
2019,06,01,10,30,15.30
2019,06,01,10,31,15.30
2019,06,01,10,32,15.30
2019,06,01,10,33,15.40
2019,06,01,10,34,15.40
2019,06,01,10,35,15.40
2019,06,01,10,36,15.40
2019,06,01,10,37,15.50
2019,06,01,10,38,15.60
2019,06,01,10,39,15.60
2019,06,01,10,40,15.60
2019,06,01,10,41,15.70
2019,06,01,10,42,15.70
2019,06,01,10,43,15.70
2019,06,01,10,44,15.80
2019,06,01,10,45,15.80
2019,06,01,10,46,15.80
2019,06,01,10,47,15.90
2019,06,01,10,48,15.90
2019,06,01,10,49,15.90
2019,06,01,10,50,16.00
2019,06,01,10,51,16.00
2019,06,01,10,52,16.10
2019,06,01,10,53,16.10
2019,06,01,10,54,16.10
2019,06,01,10,55,16.10
2019,06,01,10,56,16.10
2019,06,01,10,57,16.10
2019,06,01,10,58,16.10
2019,06,01,10,59,16.10
2019,06,01,11,00,16.10
2019,06,01,11,01,16.10
2019,06,01,11,02,16.10
2019,06,01,11,03,16.10
2019,06,01,11,04,16.00
2019,06,01,11,05,16.10
2019,06,01,11,06,16.00
2019,06,01,11,07,16.00
2019,06,01,11,08,16.00
2019,06,01,11,09,15.90
2019,06,01,11,10,15.90
2019,06,01,11,11,15.90
2019,06,01,11,12,15.90
2019,06,01,11,13,15.90
2019,06,01,11,14,15.90
2019,06,01,11,15,15.90
2019,06,01,11,16,15.90
2019,06,01,11,17,15.90
2019,06,01,11,18,15.90
2019,06,01,11,19,15.90
2019,06,01,11,20,15.90
2019,06,01,11,21,15.90
2019,06,01,11,22,15.90
2019,06,01,11,23,15.90
2019,06,01,11,24,15.90
2019,06,01,11,25,15.90
2019,06,01,11,26,15.90
2019,06,01,11,27,15.90
2019,06,01,11,28,15.90
2019,06,01,11,29,15.90
2019,06,01,11,30,15.90
2019,06,01,11,31,16.00
2019,06,01,11,32,16.00
2019,06,01,11,33,16.00
2019,06,01,11,34,16.10
2019,06,01,11,35,16.10
2019,06,01,11,36,16.10
2019,06,01,11,37,16.10
2019,06,01,11,38,16.20
2019,06,01,11,39,16.20
2019,06,01,11,40,16.20
2019,06,01,11,41,16.20
2019,06,01,11,42,16.20
2019,06,01,11,43,16.20
2019,06,01,11,44,16.30
2019,06,01,11,45,16.30
2019,06,01,11,46,16.30
2019,06,01,11,47,16.30
2019,06,01,11,48,16.30
2019,06,01,11,49,16.40
2019,06,01,11,50,16.40
2019,06,01,11,51,16.40
2019,06,01,11,52,16.40
2019,06,01,11,53,16.40
2019,06,01,11,54,16.40
2019,06,01,11,55,16.40
2019,06,01,11,56,16.40
2019,06,01,11,57,16.50
2019,06,01,11,58,16.50
2019,06,01,11,59,16.50
2019,06,01,12,00,16.50
2019,06,01,12,01,16.60
2019,06,01,12,02,16.60
2019,06,01,12,03,16.60
2019,06,01,12,04,16.70
2019,06,01,12,05,16.70
2019,06,01,12,06,16.70
2019,06,01,12,07,16.70
2019,06,01,12,08,16.70
2019,06,01,12,09,16.70
2019,06,01,12,10,16.80
2019,06,01,12,11,16.80
2019,06,01,12,12,16.80
2019,06,01,12,13,16.80
2019,06,01,12,14,16.80
2019,06,01,12,15,16.80
2019,06,01,12,16,16.90
2019,06,01,12,17,16.90
2019,06,01,12,18,16.90
2019,06,01,12,19,16.90
2019,06,01,12,20,16.90
2019,06,01,12,21,17.00
2019,06,01,12,22,17.00
2019,06,01,12,23,17.00
2019,06,01,12,24,17.10
2019,06,01,12,25,17.10
2019,06,01,12,26,17.20
2019,06,01,12,27,17.20
2019,06,01,12,28,17.20
2019,06,01,12,29,17.30
2019,06,01,12,30,17.20
2019,06,01,12,31,17.20
2019,06,01,12,32,17.30
2019,06,01,12,33,17.30
2019,06,01,12,34,17.30
2019,06,01,12,35,17.40
2019,06,01,12,36,17.50
2019,06,01,12,37,17.60
2019,06,01,12,38,17.70
2019,06,01,12,39,17.80
2019,06,01,12,40,17.90
2019,06,01,12,41,17.90
2019,06,01,12,42,18.00
2019,06,01,12,43,18.10
2019,06,01,12,44,18.10
2019,06,01,12,45,18.10
2019,06,01,12,46,18.20
2019,06,01,12,47,18.20
2019,06,01,12,48,18.30
2019,06,01,12,49,18.30
2019,06,01,12,50,18.40
2019,06,01,12,51,18.40
2019,06,01,12,52,18.40
2019,06,01,12,53,18.40
2019,06,01,12,54,18.50
2019,06,01,12,55,18.50
2019,06,01,12,56,18.50
2019,06,01,12,57,18.50
2019,06,01,12,58,18.50
2019,06,01,12,59,18.50
2019,06,01,13,00,18.50
2019,06,01,13,01,18.50
2019,06,01,13,02,18.50
2019,06,01,13,03,18.50
2019,06,01,13,04,18.50
2019,06,01,13,05,18.50
2019,06,01,13,06,18.60
2019,06,01,13,07,18.60
2019,06,01,13,08,18.60
2019,06,01,13,09,18.80
2019,06,01,13,10,18.80
2019,06,01,13,11,18.90
2019,06,01,13,12,19.00
2019,06,01,13,13,19.10
2019,06,01,13,14,19.10
2019,06,01,13,15,19.10
2019,06,01,13,16,19.10
2019,06,01,13,17,19.20
2019,06,01,13,18,19.20
2019,06,01,13,19,19.20
2019,06,01,13,20,19.20
2019,06,01,13,21,19.30
2019,06,01,13,22,19.30
2019,06,01,13,23,19.30
2019,06,01,13,24,19.30
2019,06,01,13,25,19.40
2019,06,01,13,26,19.40
2019,06,01,13,27,19.40
2019,06,01,13,28,19.40
2019,06,01,13,29,19.40
2019,06,01,13,30,19.40
2019,06,01,13,31,19.40
2019,06,01,13,32,19.40
2019,06,01,13,33,19.40
2019,06,01,13,34,19.50
2019,06,01,13,35,19.40
2019,06,01,13,36,19.40
2019,06,01,13,37,19.30
2019,06,01,13,38,19.30
2019,06,01,13,39,19.30
2019,06,01,13,40,19.20
2019,06,01,13,41,19.20
2019,06,01,13,42,19.20
2019,06,01,13,43,19.10
2019,06,01,13,44,19.10
2019,06,01,13,45,19.10
2019,06,01,13,46,19.10
2019,06,01,13,47,19.10
2019,06,01,13,48,19.20
2019,06,01,13,49,19.20
2019,06,01,13,50,19.20
2019,06,01,13,51,19.30
2019,06,01,13,52,19.40
2019,06,01,13,53,19.40
2019,06,01,13,54,19.50
2019,06,01,13,55,19.60
2019,06,01,13,56,19.60
2019,06,01,13,57,19.60
2019,06,01,13,58,19.60
2019,06,01,13,59,19.70
2019,06,01,14,00,19.80
2019,06,01,14,01,19.90
2019,06,01,14,02,20.00
2019,06,01,14,03,20.10
2019,06,01,14,04,20.10
2019,06,01,14,05,20.20
2019,06,01,14,06,20.20
2019,06,01,14,07,20.20
2019,06,01,14,08,20.20
2019,06,01,14,09,20.20
2019,06,01,14,10,20.20
2019,06,01,14,11,20.10
2019,06,01,14,12,20.10
2019,06,01,14,13,20.10
2019,06,01,14,14,20.10
2019,06,01,14,15,20.10
2019,06,01,14,16,20.10
2019,06,01,14,17,20.10
2019,06,01,14,18,20.10
2019,06,01,14,19,20.10
2019,06,01,14,20,20.10
2019,06,01,14,21,20.10
2019,06,01,14,22,20.10
2019,06,01,14,23,20.10
2019,06,01,14,24,20.10
2019,06,01,14,25,20.00
2019,06,01,14,26,20.00
2019,06,01,14,27,20.00
2019,06,01,14,28,20.00
2019,06,01,14,29,20.10
2019,06,01,14,30,20.10
2019,06,01,14,31,20.20
2019,06,01,14,32,20.30
2019,06,01,14,33,20.30
2019,06,01,14,34,20.30
2019,06,01,14,35,20.30
2019,06,01,14,36,20.40
2019,06,01,14,37,20.40
2019,06,01,14,38,20.50
2019,06,01,14,39,20.50
2019,06,01,14,40,20.50
2019,06,01,14,41,20.50
2019,06,01,14,42,20.50
2019,06,01,14,43,20.40
2019,06,01,14,44,20.40
2019,06,01,14,45,20.40
2019,06,01,14,46,20.40
2019,06,01,14,47,20.40
2019,06,01,14,48,20.40
2019,06,01,14,49,20.40
2019,06,01,14,50,20.40
2019,06,01,14,51,20.40
2019,06,01,14,52,20.40
2019,06,01,14,53,20.50
2019,06,01,14,54,20.50
2019,06,01,14,55,20.60
2019,06,01,14,56,20.60
2019,06,01,14,57,20.60
2019,06,01,14,58,20.60
2019,06,01,14,59,20.70
2019,06,01,15,00,20.70
2019,06,01,15,01,20.80
2019,06,01,15,02,20.80
2019,06,01,15,03,20.80
2019,06,01,15,04,20.90
2019,06,01,15,05,20.90
2019,06,01,15,06,20.90
2019,06,01,15,07,20.90
2019,06,01,15,08,21.00
2019,06,01,15,09,21.10
2019,06,01,15,10,21.10
2019,06,01,15,11,21.10
2019,06,01,15,12,21.10
2019,06,01,15,13,21.10
2019,06,01,15,14,21.10
2019,06,01,15,15,21.20
2019,06,01,15,16,21.20
2019,06,01,15,17,21.10
2019,06,01,15,18,21.10
2019,06,01,15,19,21.10
2019,06,01,15,20,21.10
2019,06,01,15,21,21.10
2019,06,01,15,22,21.10
2019,06,01,15,23,21.20
2019,06,01,15,24,21.20
2019,06,01,15,25,21.20
2019,06,01,15,26,21.20
2019,06,01,15,27,21.20
2019,06,01,15,28,21.30
2019,06,01,15,29,21.30
2019,06,01,15,30,21.30
2019,06,01,15,31,21.30
2019,06,01,15,32,21.30
2019,06,01,15,33,21.30
2019,06,01,15,34,21.40
2019,06,01,15,35,21.40
2019,06,01,15,36,21.40
2019,06,01,15,37,21.30
2019,06,01,15,38,21.30
2019,06,01,15,39,21.30
2019,06,01,15,40,21.30
2019,06,01,15,41,21.40
2019,06,01,15,42,21.50
2019,06,01,15,43,21.50
2019,06,01,15,44,21.50
2019,06,01,15,45,21.50
2019,06,01,15,46,21.40
2019,06,01,15,47,21.40
2019,06,01,15,48,21.40
2019,06,01,15,49,21.40
2019,06,01,15,50,21.50
2019,06,01,15,51,21.50
2019,06,01,15,52,21.60
2019,06,01,15,53,21.60
2019,06,01,15,54,21.60
2019,06,01,15,55,21.60
2019,06,01,15,56,21.60
2019,06,01,15,57,21.70
2019,06,01,15,58,21.70
2019,06,01,15,59,21.70
2019,06,01,16,00,21.70
2019,06,01,16,01,21.70
2019,06,01,16,02,21.80
2019,06,01,16,03,21.80
2019,06,01,16,04,21.80
2019,06,01,16,05,21.90
2019,06,01,16,06,22.00
2019,06,01,16,07,22.10
2019,06,01,16,08,22.10
2019,06,01,16,09,22.20
2019,06,01,16,10,22.20
2019,06,01,16,11,22.30
2019,06,01,16,12,22.30
2019,06,01,16,13,22.30
2019,06,01,16,14,22.30
2019,06,01,16,15,22.30
2019,06,01,16,16,22.30
2019,06,01,16,17,22.30
2019,06,01,16,18,22.30
2019,06,01,16,19,22.30
2019,06,01,16,20,22.30
2019,06,01,16,21,22.30
2019,06,01,16,22,22.30
2019,06,01,16,23,22.30
2019,06,01,16,24,22.30
2019,06,01,16,25,22.30
2019,06,01,16,26,22.30
2019,06,01,16,27,22.30
2019,06,01,16,28,22.30
2019,06,01,16,29,22.30
2019,06,01,16,30,22.20
2019,06,01,16,31,22.20
2019,06,01,16,32,22.10
2019,06,01,16,33,22.20
2019,06,01,16,34,22.20
2019,06,01,16,35,22.30
2019,06,01,16,36,22.30
2019,06,01,16,37,22.40
2019,06,01,16,38,22.40
2019,06,01,16,39,22.40
2019,06,01,16,40,22.40
2019,06,01,16,41,22.40
2019,06,01,16,42,22.40
2019,06,01,16,43,22.40
2019,06,01,16,44,22.40
2019,06,01,16,45,22.30
2019,06,01,16,46,22.20
2019,06,01,16,47,22.20
2019,06,01,16,48,22.20
2019,06,01,16,49,22.10
2019,06,01,16,50,22.10
2019,06,01,16,51,22.10
2019,06,01,16,52,22.10
2019,06,01,16,53,22.10
2019,06,01,16,54,22.10
2019,06,01,16,55,22.10
2019,06,01,16,56,22.10
2019,06,01,16,57,22.10
2019,06,01,16,58,22.00
2019,06,01,16,59,22.00
2019,06,01,17,00,22.00
2019,06,01,17,01,21.90
2019,06,01,17,02,21.90
2019,06,01,17,03,21.90
2019,06,01,17,04,21.90
2019,06,01,17,05,21.90
2019,06,01,17,06,21.90
2019,06,01,17,07,21.90
2019,06,01,17,08,21.90
2019,06,01,17,09,22.00
2019,06,01,17,10,22.00
2019,06,01,17,11,22.10
2019,06,01,17,12,22.10
2019,06,01,17,13,22.10
2019,06,01,17,14,22.20
2019,06,01,17,15,22.20
2019,06,01,17,16,22.20
2019,06,01,17,17,22.20
2019,06,01,17,18,22.20
2019,06,01,17,19,22.30